Theta_e
328 328 330 331 333 333 332 333 333 333 333 332 332 333 340 345 346 346 345 352 352 351 348 347 346 346 349 352 352 352 351 355 352 353 354 353 352 349 347 353 348 348 350 351
329 330 329 331 332 331 330 332 334 333 333 333 333 345 343 346 345 344 348 348 355 350 343 350 347 348 351 352 353 349 352 350 355 355 356 351 351 351 349 352 351 348 349 349
329 330 330 328 330 329 331 333 333 332 330 331 335 347 349 345 345 346 346 347 353 349 346 350 349 349 348 352 356 356 351 354 357 355 355 353 353 350 350 352 352 349 350 349
329 329 328 328 328 331 332 332 332 330 332 334 337 354 344 342 345 343 343 349 348 355 355 350 351 350 349 353 355 358 359 358 358 356 354 353 352 351 351 349 352 350 348 351
330 329 328 328 329 331 332 331 331 331 332 333 338 346 350 346 347 349 347 349 348 346 353 351 351 346 344 345 351 359 361 361 359 356 356 355 353 350 349 349 351 351 348 350
329 331 329 329 330 331 331 330 331 332 334 338 338 340 349 346 346 346 345 345 345 345 352 352 351 347 338 341 345 353 361 361 360 359 356 355 354 350 350 351 352 352 351 351
333 331 330 330 331 332 331 332 334 338 341 343 338 339 345 341 343 346 346 345 344 347 347 349 353 345 341 342 344 348 363 362 362 361 359 354 354 349 348 351 350 350 352 350
336 336 332 331 330 331 332 333 334 338 334 339 340 344 349 347 344 346 348 348 348 348 346 346 352 348 337 339 340 345 362 364 363 362 361 357 353 350 346 350 348 352 352 350
338 337 332 331 331 331 332 333 333 333 332 340 340 343 344 342 342 340 343 347 348 350 349 348 348 349 347 336 343 354 362 363 362 362 361 358 356 355 349 350 351 351 350 349
334 336 336 333 331 332 331 332 332 332 337 339 337 343 355 345 345 342 344 347 348 352 351 350 348 348 354 354 355 353 358 360 361 361 361 357 355 354 355 351 349 353 352 351
333 334 335 335 334 335 334 333 337 335 340 338 340 345 346 348 344 344 344 348 348 350 351 349 350 348 351 356 356 351 338 362 362 361 359 357 357 357 356 353 351 353 352 351
335 336 336 334 336 335 335 336 335 336 338 336 338 347 344 345 343 342 345 348 348 349 350 350 350 351 349 355 357 349 350 358 359 359 359 356 355 355 357 356 355 351 349 352
337 339 335 335 337 336 337 338 337 337 335 341 339 348 343 342 341 345 344 343 347 353 351 351 350 357 353 360 359 356 356 344 357 358 359 360 357 356 356 355 353 353 351 350
333 331 331 333 335 335 337 339 339 338 337 335 339 345 344 342 344 346 347 343 345 351 355 356 355 353 351 361 358 357 357 357 355 356 357 358 358 358 358 357 354 352 353 350
333 333 333 333 333 333 333 333 334 334 334 335 336 336 345 343 344 347 347 347 348 349 350 352 355 362 357 355 362 359 356 355 356 356 358 359 357 358 357 356 355 352 353 353
333 335 335 335 334 333 333 332 332 333 332 333 334 339 343 341 340 347 347 348 350 351 351 351 351 355 359 359 357 358 362 362 358 358 359 360 359 358 358 355 354 354 353 352
333 334 337 337 334 334 333 334 334 334 335 337 337 350 349 349 349 349 347 347 349 350 351 350 350 353 352 357 359 360 362 362 362 362 362 362 360 363 361 360 355 355 354 350
333 335 335 337 336 337 333 334 336 337 335 337 344 349 349 349 346 344 345 345 345 346 347 349 347 347 348 349 353 356 361 362 363 364 364 363 364 365 365 364 361 360 355 352
332 332 334 336 335 334 332 340 338 337 338 341 346 347 346 346 344 343 341 341 342 342 342 341 341 344 347 348 349 351 356 362 361 363 363 365 365 367 366 365 365 363 361 360
333 333 334 336 337 338 340 338 335 333 334 347 347 347 346 345 350 350 343 340 339 338 338 337 338 340 344 345 347 349 351 355 359 360 360 360 361 363 365 366 366 364 363 363
337 339 337 336 336 335 340 338 336 338 350 346 344 345 345 347 346 344 341 340 336 335 335 334 335 336 339 341 345 348 350 353 355 355 358 359 359 361 364 366 366 364 364 362
337 338 339 338 341 342 338 340 345 347 343 341 340 339 339 338 338 338 337 336 336 335 334 334 334 335 334 335 339 345 349 350 351 353 354 356 358 359 362 363 363 364 364 362
337 336 338 339 340 340 336 338 337 336 337 336 336 334 333 332 332 333 334 334 334 333 333 333 334 335 335 335 337 340 343 345 349 350 352 354 354 357 358 360 362 362 362 364
335 335 336 336 335 334 331 331 330 330 330 329 330 331 330 330 329 330 332 333 335 333 332 331 333 334 335 334 335 336 336 338 343 348 349 350 355 356 355 357 358 359 360 362
332 332 333 333 332 332 331 331 331 330 329 329 329 328 328 328 329 330 333 335 334 333 333 332 333 334 334 334 335 335 336 336 339 344 347 348 348 354 356 350 346 348 346 343
330 331 331 332 332 331 332 330 330 329 329 328 328 328 329 329 329 330 332 331 332 333 333 333 334 334 333 334 335 335 335 337 338 340 342 344 344 351 353 349 342 347 347 335
Wind_Speed
14 11 13 16 14 7 8 12 10 13 1 7 10 12 12 34 32 9 12 18 19 20 17 21 19 20 30 29 28 25 22 21 26 20 16 13 14 12 12 8 10 11 12 10
12 13 13 15 4 6 10 11 16 13 5 8 11 14 18 29 33 25 10 9 18 10 4 15 22 22 28 29 33 30 30 26 23 19 17 19 20 17 11 12 11 13 10 8
14 17 2 9 5 8 13 15 14 10 12 14 15 15 14 14 28 23 27 12 20 22 23 18 19 26 23 27 30 30 26 30 24 19 14 13 14 11 14 15 13 15 13 12
9 14 9 9 11 12 15 8 11 12 12 11 7 4 1 5 14 22 25 17 12 23 31 20 25 26 29 30 31 31 28 30 25 21 19 20 22 16 21 20 19 20 18 13
13 8 10 9 13 13 12 14 15 15 15 16 5 6 6 8 10 17 24 20 13 10 25 20 23 13 6 13 4 26 29 27 22 23 21 22 20 20 16 22 22 19 21 18
16 7 8 12 11 11 12 13 18 19 16 12 9 6 5 6 8 3 6 5 7 6 25 30 30 29 29 16 40 12 30 24 22 24 24 22 21 21 22 16 17 19 20 16
17 16 13 8 12 12 13 17 13 8 3 4 9 7 9 5 10 5 5 4 6 8 8 9 23 28 23 37 44 8 27 26 23 23 23 22 20 21 21 10 19 15 17 18
8 5 13 12 12 14 14 15 9 16 11 8 4 6 5 16 11 1 13 8 4 5 5 6 23 35 24 10 30 26 24 23 23 21 21 21 19 19 21 13 13 15 18 20
8 11 7 9 8 13 13 12 13 12 12 13 4 15 13 7 22 23 13 13 8 3 3 2 2 37 36 48 34 27 23 20 22 21 20 21 19 18 22 19 18 20 23 21
13 5 7 9 10 11 11 13 12 8 6 5 0 7 10 11 14 24 17 13 9 7 2 3 1 3 33 37 26 25 20 25 20 18 20 20 21 20 20 18 21 20 21 20
10 11 3 5 9 12 8 13 9 15 13 7 6 7 15 22 21 20 10 11 8 8 5 0 3 5 10 20 27 27 9 13 16 19 22 22 22 21 20 20 19 20 16 11
13 8 11 16 13 20 23 13 8 9 15 7 5 3 7 11 26 17 11 9 7 8 7 5 3 6 5 14 24 23 15 15 16 17 18 20 22 21 22 21 21 18 20 15
12 6 9 12 10 17 17 16 18 22 16 13 6 3 6 7 26 35 12 5 8 6 6 6 3 4 3 13 21 19 23 19 19 19 20 19 20 20 21 20 19 20 17 18
5 12 14 13 17 11 11 12 16 19 13 16 14 10 13 10 12 16 17 2 8 7 6 7 6 2 2 15 20 19 17 17 15 17 15 18 19 21 22 23 21 23 21 20
4 12 13 16 18 19 20 19 17 18 16 17 19 19 16 16 14 20 18 3 8 7 9 6 9 6 5 3 17 19 21 19 17 17 16 19 20 20 19 15 18 19 20 21
6 11 12 16 17 19 19 18 18 17 16 15 16 7 15 16 17 16 3 6 8 10 9 8 7 7 3 7 8 12 13 20 19 17 16 14 18 21 21 21 19 20 20 20
10 10 11 15 16 16 16 13 12 10 8 12 12 17 18 21 14 9 5 7 9 11 9 7 7 6 5 7 4 8 13 16 20 18 16 16 18 20 21 21 22 22 25 25
12 11 9 11 12 15 13 6 6 7 8 11 11 11 11 13 10 8 8 8 10 10 9 8 7 7 7 7 10 14 10 15 16 20 19 19 19 19 19 19 21 22 25 25
9 9 9 10 12 16 18 12 10 8 7 10 9 9 7 7 10 9 7 6 7 8 8 10 11 9 4 7 6 7 11 8 15 15 16 18 21 21 20 22 22 22 22 22
6 7 7 10 13 14 6 9 4 4 3 11 11 10 9 8 3 5 10 13 11 9 9 10 11 12 11 11 11 11 11 12 9 11 15 17 19 20 21 23 23 22 22 21
7 8 9 9 12 12 11 7 7 7 4 7 7 9 10 8 5 4 3 5 3 8 9 9 10 11 12 14 10 9 11 12 15 14 10 17 19 22 23 23 23 22 22 21
11 8 9 10 13 7 11 9 5 4 4 6 7 7 6 6 6 2 4 3 4 5 9 11 11 9 10 13 13 12 10 12 15 15 14 11 16 22 23 26 24 23 23 22
4 6 7 4 6 3 2 5 8 9 7 7 1 4 7 10 11 11 10 10 9 11 11 12 11 13 13 13 13 13 13 12 12 12 15 16 16 17 23 25 25 24 24 21
2 9 5 5 6 12 7 4 4 4 9 11 11 11 10 12 14 14 12 9 8 12 12 13 12 13 15 16 16 17 18 18 15 13 15 16 16 17 18 24 27 24 27 24
9 10 6 9 12 10 8 12 10 8 7 14 12 11 13 14 13 12 10 10 11 14 14 15 14 13 15 17 19 19 20 20 20 17 15 15 17 14 9 9 7 6 10 8
10 9 6 7 8 5 8 12 14 14 10 13 12 15 12 12 14 15 12 14 14 14 15 16 16 16 16 18 20 20 21 20 21 20 18 18 16 13 7 5 3 11 10 15
Wind_Direction
216 234 236 245 243 325 333 296 294 269 222 311 290 282 359 7 351 216 239 183 186 179 174 181 191 182 171 180 171 168 177 164 180 176 186 190 201 211 215 240 223 207 231 212
248 225 244 268 310 310 274 258 268 268 178 252 274 38 22 12 335 316 245 246 143 226 34 232 195 181 174 177 174 175 181 176 185 181 193 194 203 205 213 225 226 221 224 228
241 267 142 255 250 244 248 254 274 345 324 285 256 36 36 14 315 325 331 260 167 161 204 197 211 186 181 179 170 171 175 182 184 187 191 183 189 200 210 224 229 219 219 217
264 255 249 263 251 253 265 332 319 300 294 292 260 128 46 187 24 305 292 268 224 178 188 174 208 193 188 176 176 172 174 180 190 196 187 184 183 188 207 211 215 211 207 223
252 223 250 242 248 255 267 313 297 290 278 269 333 101 261 245 199 246 261 230 229 266 173 187 188 93 330 345 171 176 173 181 189 193 196 196 186 206 209 216 208 205 197 204
266 294 257 239 239 249 269 285 270 262 263 256 1 292 205 233 237 225 45 346 326 282 148 183 193 138 99 313 274 221 171 182 192 190 197 197 196 210 219 222 225 193 193 200
232 235 226 238 274 260 260 261 280 293 268 271 232 255 47 259 260 122 71 49 333 340 298 206 153 115 135 191 235 205 174 170 188 189 192 202 208 216 224 187 195 197 189 200
246 237 212 192 226 278 285 291 288 303 326 232 187 159 295 323 335 148 120 98 69 335 10 326 127 139 149 47 219 231 170 161 186 192 190 198 203 214 218 229 216 213 222 220
63 309 137 200 212 234 279 291 316 296 318 25 107 101 60 313 338 295 317 89 73 53 18 341 42 154 132 188 224 202 162 177 190 192 190 196 199 204 210 210 214 224 226 226
314 272 242 256 204 241 264 304 310 313 316 327 243 132 152 123 231 262 288 77 74 86 79 334 201 306 160 172 146 165 172 178 194 193 196 198 202 208 209 213 215 227 221 235
307 307 257 227 223 315 256 239 9 316 315 290 340 64 162 188 204 229 83 78 63 100 109 273 279 141 130 140 154 177 185 171 195 203 198 199 197 205 213 210 210 221 220 230
326 311 305 312 160 217 269 343 268 251 276 286 351 75 350 13 359 6 83 65 51 56 86 133 284 138 203 146 144 159 180 192 211 223 199 203 202 204 208 220 212 218 228 222
359 312 316 299 27 340 342 331 308 299 297 298 276 120 275 28 58 322 334 46 104 125 103 100 90 100 183 119 143 165 179 204 216 221 201 203 199 199 209 214 215 220 226 222
331 283 280 287 308 306 268 254 263 282 308 321 338 138 214 98 129 214 286 112 95 86 69 66 119 106 321 134 147 158 178 203 202 217 204 211 208 209 207 204 210 216 217 222
264 271 285 296 309 311 306 302 297 294 292 298 304 309 131 127 129 237 254 136 81 67 71 44 20 129 156 229 164 171 180 196 210 220 220 213 210 215 215 220 216 218 215 216
280 283 291 288 286 281 283 277 276 278 281 286 297 360 134 161 183 239 141 108 94 80 53 48 36 20 18 176 196 192 195 189 203 224 226 218 210 213 216 221 211 214 212 222
282 294 302 288 304 307 290 280 281 289 328 348 322 112 147 158 162 95 99 71 68 71 67 47 28 36 15 337 207 210 203 202 198 206 216 222 222 212 211 220 218 218 215 219
268 263 268 285 291 277 281 326 360 327 322 358 27 65 68 88 106 84 52 57 57 53 50 49 30 27 1 343 340 347 226 208 210 210 214 226 225 222 215 214 211 211 219 220
271 271 275 276 269 277 276 40 25 16 343 40 5 44 80 130 121 111 67 62 46 40 37 23 13 0 43 15 10 327 315 277 221 224 228 228 223 220 218 218 217 213 209 212
249 290 252 276 290 289 25 82 30 4 253 35 18 11 10 358 2 59 7 8 10 23 17 14 4 357 25 7 1 348 320 303 289 249 240 237 238 234 228 222 220 216 215 215
237 217 261 268 261 269 37 16 338 262 35 47 15 25 31 36 56 118 197 261 11 341 342 354 356 1 1 352 359 342 333 333 360 350 327 249 239 236 234 232 223 218 213 214
289 288 276 260 269 256 17 321 352 54 85 35 28 32 1 339 322 264 257 264 290 297 312 320 328 335 337 338 349 340 341 344 333 331 325 319 262 247 238 233 231 220 214 212
254 271 297 320 6 183 131 64 27 5 343 334 318 301 316 316 312 308 301 296 288 288 285 284 292 302 308 318 328 319 323 320 314 317 308 300 293 275 254 243 232 225 217 208
6 15 272 269 299 325 341 345 298 330 347 325 306 308 316 306 299 299 300 299 305 302 300 289 283 290 296 299 301 305 310 310 304 299 301 298 295 284 273 258 242 230 219 212
302 330 304 291 277 312 299 1 10 347 327 305 300 312 307 296 291 295 308 319 318 312 305 296 285 278 284 291 290 295 300 302 300 294 290 295 294 281 299 316 316 239 135 40
284 290 291 309 347 342 310 322 318 309 316 300 304 283 290 322 316 309 300 296 295 292 293 293 293 288 283 286 287 288 293 294 296 291 282 277 282 258 241 232 138 158 164 222